Weather History for KWVL - January, 2013

Change the Weather History Date:

Friday, January 4, 2013

  Actual Average (KAUG) Record (KAUG)
Temperature  
Mean Temperature 16 °F 20 °F  
Max Temperature 30 °F 28 °F - ()
Min Temperature 3 °F 12 °F - ()
Degree Days  
Heating Degree Days 48 45  
Month to date heating degree days 178  
Since 1 July heating degree days 2933  
Cooling Degree Days 0 0  
Month to date cooling degree days 0  
Year to date cooling degree days 0  
Moisture  
Dew Point 10 °F    
Average Humidity 72    
Maximum Humidity 85    
Minimum Humidity 62    
Precipitation  
Precipitation 0.00 in 0.08 in - ()
Month to date precipitation 0.34  
Year to date precipitation 0.34  
Sea Level Pressure  
Sea Level Pressure 29.73 in    
Wind  
Wind Speed 5 mph (SSW)    
Max Wind Speed 9 mph    
Max Gust Speed -    
Visibility 10 miles    
Events      
T = Trace of Precipitation, MM = Missing Value Source: NWS Daily Summary

Daily Weather History Graph

Daily Weather History Graph

Search for Another Location

Airport or City:

Trip Planner

Search our weather history database for the weather conditions in past years. The results will help you decide how hot, cold, wet, or windy it might be!

Date:

Astronomy

Jan. 04, 2013 Rise Set
Actual Time 7:15 AM EST 4:12 PM EST
Civil Twilight 6:42 AM EST 4:45 PM EST
Nautical Twilight 6:05 AM EST 5:22 PM EST
Astronomical Twilight 5:30 AM EST 5:57 PM EST
Moon No Moon Rise 10:37 AM EST (1/4)
Length of Visible Light 10h 03m
Length of Day
8h 57m
Waning Gibbous, 55% of the Moon is Illuminated
Jan 4
Waning Gibbous
Jan 4
Last Quarter
Jan 11
New
Jan 18
First Quarter
Jan 26
Full

Hourly Weather History & Observations

Time (EST) Temp. Windchill Dew Point Humidity Pressure Visibility Wind Dir Wind Speed Gust Speed Precip Events Conditions
12:15 AM 8.6 °F 2.0 °F -2.2 °F 62% 29.87 in 10.0 mi SSW 3.5 mph - N/A   Clear
12:55 AM 8.6 °F - -2.2 °F 62% 29.86 in 10.0 mi Calm Calm - N/A   Partly Cloudy
1:15 AM 6.8 °F -0.1 °F -2.2 °F 67% 29.86 in 10.0 mi SW 3.5 mph - N/A   Mostly Cloudy
1:35 AM 8.6 °F 0.1 °F -0.4 °F 67% 29.85 in 10.0 mi SSW 4.6 mph - N/A   Overcast
1:55 AM 8.6 °F 0.1 °F -0.4 °F 67% 29.84 in 10.0 mi SSW 4.6 mph - N/A   Mostly Cloudy
2:35 AM 6.8 °F -3.5 °F -2.2 °F 67% 29.84 in 10.0 mi SSW 5.8 mph - N/A   Clear
2:55 AM 6.8 °F -2.0 °F -2.2 °F 67% 29.84 in 10.0 mi SW 4.6 mph - N/A   Clear
3:15 AM 6.8 °F -0.1 °F -2.2 °F 67% 29.83 in 10.0 mi SW 3.5 mph - N/A   Clear
3:35 AM 6.8 °F -0.1 °F -0.4 °F 72% 29.82 in 10.0 mi South 3.5 mph - N/A   Clear
3:55 AM 6.8 °F -2.0 °F -2.2 °F 67% 29.82 in 10.0 mi South 4.6 mph - N/A   Clear
4:15 AM 5.0 °F -2.1 °F -2.2 °F 72% 29.82 in 10.0 mi SSW 3.5 mph - N/A   Clear
4:35 AM 3.2 °F -7.8 °F -2.2 °F 78% 29.81 in 10.0 mi SSW 5.8 mph - N/A   Clear
4:55 AM 3.2 °F -7.8 °F -0.4 °F 85% 29.81 in 10.0 mi SSW 5.8 mph - N/A   Clear
5:15 AM 3.2 °F -4.2 °F -2.2 °F 78% 29.81 in 10.0 mi SSW 3.5 mph - N/A   Clear
5:35 AM 5.0 °F -5.6 °F -2.2 °F 72% 29.80 in 10.0 mi SSW 5.8 mph - N/A   Mostly Cloudy
5:55 AM 3.2 °F -7.8 °F -2.2 °F 78% 29.81 in 10.0 mi SSW 5.8 mph - N/A   Mostly Cloudy
6:15 AM 3.2 °F -6.2 °F -2.2 °F 78% 29.82 in 10.0 mi SW 4.6 mph - N/A   Partly Cloudy
6:35 AM 3.2 °F -6.2 °F -0.4 °F 85% 29.82 in 10.0 mi SW 4.6 mph - N/A   Scattered Clouds
7:15 AM 6.8 °F -0.1 °F 1.4 °F 79% 29.82 in 10.0 mi SSW 3.5 mph - N/A   Overcast
7:35 AM 6.8 °F -2.0 °F 1.4 °F 79% 29.81 in 10.0 mi SW 4.6 mph - N/A   Overcast
7:55 AM 6.8 °F -3.5 °F 3.2 °F 85% 29.80 in 10.0 mi SW 5.8 mph - N/A   Overcast
8:15 AM 6.8 °F -4.8 °F 1.4 °F 79% 29.79 in 10.0 mi SSW 6.9 mph - N/A   Overcast
8:35 AM 8.6 °F 0.1 °F 3.2 °F 79% 29.79 in 10.0 mi SSW 4.6 mph - N/A   Scattered Clouds
8:55 AM 8.6 °F 2.0 °F 3.2 °F 79% 29.78 in 10.0 mi South 3.5 mph - N/A   Mostly Cloudy
9:15 AM 8.6 °F 2.0 °F 3.2 °F 79% 29.78 in 10.0 mi SSW 3.5 mph - N/A   Mostly Cloudy
9:35 AM 10.4 °F 4.0 °F 3.2 °F 73% 29.78 in 10.0 mi South 3.5 mph - N/A   Partly Cloudy
9:55 AM 10.4 °F 2.2 °F 6.8 °F 85% 29.78 in 10.0 mi SSW 4.6 mph - N/A   Clear
10:15 AM 10.4 °F -0.4 °F 6.8 °F 85% 29.76 in 10.0 mi SW 6.9 mph - N/A   Clear
10:35 AM 12.2 °F 2.9 °F 8.6 °F 85% 29.75 in 10.0 mi SSW 5.8 mph - N/A   Mostly Cloudy
10:55 AM 15.8 °F 8.6 °F 8.6 °F 73% 29.74 in 10.0 mi South 4.6 mph - N/A   Mostly Cloudy
11:15 AM 19.4 °F 11.5 °F 12.2 °F 74% 29.73 in 10.0 mi SW 5.8 mph - N/A   Mostly Cloudy
11:35 AM 21.2 °F 13.6 °F 12.2 °F 68% 29.72 in 10.0 mi SSW 5.8 mph - N/A   Overcast
11:55 AM 21.2 °F 14.9 °F 12.2 °F 68% 29.69 in 10.0 mi South 4.6 mph - N/A   Overcast
12:15 PM 23.0 °F 14.7 °F 14.0 °F 68% 29.68 in 10.0 mi South 6.9 mph - N/A   Overcast
12:35 PM 23.0 °F 17.0 °F 15.8 °F 74% 29.67 in 10.0 mi South 4.6 mph - N/A   Overcast
12:55 PM 24.8 °F 17.9 °F 15.8 °F 69% 29.66 in 10.0 mi South 5.8 mph - N/A   Overcast
1:15 PM 24.8 °F 19.1 °F 15.8 °F 69% 29.66 in 10.0 mi South 4.6 mph - N/A   Mostly Cloudy
1:35 PM 24.8 °F 19.1 °F 17.6 °F 74% 29.66 in 10.0 mi South 4.6 mph - N/A   Mostly Cloudy
1:55 PM 26.6 °F 18.2 °F 17.6 °F 69% 29.66 in 10.0 mi South 8.1 mph - N/A   Mostly Cloudy
2:15 PM 26.6 °F 21.2 °F 17.6 °F 69% 29.66 in 10.0 mi South 4.6 mph - N/A   Partly Cloudy
2:35 PM 28.4 °F 21.2 °F 17.6 °F 64% 29.65 in 10.0 mi South 6.9 mph - N/A   Clear
2:55 PM 28.4 °F 22.2 °F 19.4 °F 69% 29.65 in 10.0 mi South 5.8 mph - N/A   Clear
3:35 PM 28.4 °F 22.2 °F 19.4 °F 69% 29.65 in 10.0 mi South 5.8 mph - N/A   Mostly Cloudy
3:55 PM 30.2 °F 23.4 °F 19.4 °F 64% 29.65 in 10.0 mi SSW 6.9 mph - N/A   Overcast
4:15 PM 30.2 °F 23.4 °F 19.4 °F 64% 29.64 in 10.0 mi SSW 6.9 mph - N/A   Mostly Cloudy
4:35 PM 30.2 °F 23.4 °F 19.4 °F 64% 29.65 in 10.0 mi South 6.9 mph - N/A   Mostly Cloudy
4:55 PM 28.4 °F 22.2 °F 19.4 °F 69% 29.65 in 10.0 mi South 5.8 mph - N/A   Mostly Cloudy
5:15 PM 28.4 °F - 19.4 °F 69% 29.65 in 10.0 mi Calm Calm - N/A   Overcast
5:35 PM 26.6 °F 21.2 °F 17.6 °F 69% 29.65 in 10.0 mi SSW 4.6 mph - N/A   Mostly Cloudy
6:15 PM 26.6 °F 20.0 °F 19.4 °F 74% 29.66 in 10.0 mi SW 5.8 mph - N/A   Scattered Clouds
6:35 PM 26.6 °F 22.6 °F 17.6 °F 69% 29.66 in 10.0 mi South 3.5 mph - N/A   Scattered Clouds
6:55 PM 26.6 °F - 17.6 °F 69% 29.66 in 10.0 mi Calm Calm - N/A   Mostly Cloudy
7:15 PM 26.6 °F 21.2 °F 19.4 °F 74% 29.66 in 10.0 mi ESE 4.6 mph - N/A   Overcast
7:35 PM 26.6 °F 20.0 °F 19.4 °F 74% 29.67 in 10.0 mi SE 5.8 mph - N/A   Overcast
7:55 PM 26.6 °F 20.0 °F 19.4 °F 74% 29.67 in 10.0 mi South 5.8 mph - N/A   Overcast
8:15 PM 28.4 °F 21.2 °F 19.4 °F 69% 29.67 in 10.0 mi South 6.9 mph - N/A   Overcast
8:35 PM 28.4 °F 22.2 °F 19.4 °F 69% 29.66 in 10.0 mi SSW 5.8 mph - N/A   Overcast
8:55 PM 28.4 °F 19.7 °F 19.4 °F 69% 29.67 in 10.0 mi SSW 9.2 mph - N/A   Overcast
9:15 PM 28.4 °F 21.2 °F 19.4 °F 69% 29.67 in 10.0 mi SSW 6.9 mph - N/A   Overcast
9:35 PM 28.4 °F 22.2 °F 19.4 °F 69% 29.67 in 10.0 mi SSW 5.8 mph - N/A   Overcast
9:55 PM 28.4 °F 23.3 °F 19.4 °F 69% 29.68 in 10.0 mi SSW 4.6 mph - N/A   Overcast
10:35 PM 28.4 °F 24.6 °F 19.4 °F 69% 29.67 in 10.0 mi SSE 3.5 mph - N/A   Overcast
10:55 PM 28.4 °F 24.6 °F 21.2 °F 74% 29.67 in 10.0 mi SE 3.5 mph - N/A   Overcast
11:15 PM 28.4 °F 23.3 °F 21.2 °F 74% 29.67 in 10.0 mi ESE 4.6 mph - N/A   Overcast
11:35 PM 28.4 °F 22.2 °F 21.2 °F 74% 29.66 in 10.0 mi South 5.8 mph - N/A   Overcast
11:55 PM 30.2 °F 23.4 °F 21.2 °F 69% 29.65 in 10.0 mi South 6.9 mph - N/A   Overcast